Regional Weather Roundup
Issued by NWS

Home | Current Version | Previous Version | Text Only | Print | Product List | Glossary On
Versions: 1 2 3 4 5 6 7 8 9 10 11 12 13 14 15 16 17 18 19 20 21 22 23 24 25 26 27 28 29 30 31 32 33 34 35 36 37 38 39 40 41 42 43 44 45 46 47 48 49 50
000
ASUS43 KMPX 060410
RWRMN
WEATHER ROUNDUP FOR MINNESOTA
NATIONAL WEATHER SERVICE TWIN CITIES/CHANHASSEN MN
1100 PM CDT THU MAY 05 2016


NOTE: "FAIR" INDICATES FEW OR NO CLOUDS BELOW 12,000 FEET WITH NO
SIGNIFICANT WEATHER AND/OR OBSTRUCTIONS TO VISIBILITY. N/A MEANS
CURRENT SKY AND/OR WEATHER CONDITIONS ARE NOT AVAILABLE.

MNZ060>063-068>070-060500-
   Twin Cities Metro

CITY           SKY/WX    TMP DP  RH WIND       PRES   REMARKS
TWIN CITIES    CLEAR     69  40  34 SW7       29.88S
ST PAUL        CLEAR     58  46  64 SE3       29.88S
CRYSTAL        CLEAR     69  42  37 SW6       29.86S
BLAINE         CLEAR     70  39  32 SW6       29.87S
EDEN PRAIRIE   CLEAR     68  41  37 SW9       29.88S
SOUTH ST PAUL  CLEAR     60  42  51 CALM      29.88S
LAKE ELMO      FAIR      55  43  62 S5        29.89S
$$
MNZ001>005-007-008-013>017-022>024-027-028-060500-
   Northwest Minnesota

CITY           SKY/WX    TMP DP  RH WIND       PRES   REMARKS
BEMIDJI        CLEAR     71  38  30 SW7       29.78S
HALLOCK        CLEAR     72  32  23 SW9       29.67S
ROSEAU         CLEAR     72  43  35 SW10      29.69S
WARROAD        CLEAR     72  46  40 SW8       29.69S
THIEF RVR FALL CLOUDY    70  32  24 SW7       29.74F
CROOKSTON      CLEAR     66  36  32 S9        29.74S
FOSSTON        CLEAR     63  36  36 S7        29.78S
DETROIT LAKES  CLEAR     72  37  28 SW10      29.83S
MOORHEAD       CLEAR     72  39  30 S9        29.78F
PARK RAPIDS    CLEAR     69  39  33 SW9       29.81S
MAHNOMEN       FAIR      65  40  39 S10       29.78S
$$
MNZ006-009>011-018-025>026-060500-
   North Central Minnesota

CITY           SKY/WX    TMP DP  RH WIND       PRES   REMARKS
BAUDETTE       CLEAR     69  38  32 SW7       29.70S
FLAG ISLAND    CLOUDY    64  37  36 S5        29.66S
INTL FALLS     CLEAR     58  46  64 SW5       29.70F
WASKISH        CLEAR     73  39  29 SW8       29.73S
BIG FORK       CLEAR     63  43  48 SW6       29.75S
LONGVILLE      CLEAR     68  41  37 SW5       29.81S
GRAND RAPIDS   CLEAR     72  41  33 SW7       29.80S
CRANE LAKE     CLEAR     52  48  87 S5        29.73S
ORR            CLEAR     72  37  28 CALM      29.72S
COOK           MOCLDY    72  45  37 SW7       29.76R
WALKER         FAIR      72  38  28 SW9       29.79F
$$
MNZ012-019>021-037-060500-
   Northeast Minnesota

CITY           SKY/WX    TMP DP  RH WIND       PRES   REMARKS
DULUTH         CLEAR     68  41  37 SW14      29.79F
ELY            CLEAR     66  41  39 S6        29.75F
HIBBING        PTCLDY    65  42  43 SW3       29.77S
EVELETH        PTCLDY    70  43  37 SW12      29.79S
DULUTH HARBOR  CLEAR     66  45  45 SW9       29.78S
TWO HARBORS    CLEAR     63  46  55 CALM      29.77S
SILVER BAY     CLEAR     54  37  54 CALM      29.77S
GRAND MARAIS     N/A     46  35  65 NE5       29.80F
G MARAIS ARPRT CLEAR     52  34  50 E7        29.82F
$$
MNZ029>031-032-039>041-046>048-054>057-064-060500-
   West Central Minnesota

CITY           SKY/WX    TMP DP  RH WIND       PRES   REMARKS
FERGUS FALLS   CLEAR     66  43  42 S9        29.81R
WHEATON        CLEAR     68  45  42 S10       29.86S
MORRIS         CLEAR     66  43  42 S9        29.86S
ALEXANDRIA     CLEAR     65  41  41 SW9       29.89R
ELBOW LAKE     FAIR      63  42  47 S9        29.86S
WADENA         CLEAR     68  43  40 SW8       29.84S
GLENWOOD       CLEAR     61  43  51 SW9       29.89S
APPLETON       CLEAR     66  43  42 S7        29.88S
BENSON         CLEAR     63  41  45 SW8       29.89R
ORTONVILLE     CLEAR     64  43  45 S7        29.87F
MADISON        CLEAR     63  43  48 S8        29.89S
WILLMAR        FAIR      70  45  40 SW7       29.92S
$$
MNZ033>034-036-042>043-049>051-058-059-060500-
   Central Minnesota

CITY           SKY/WX    TMP DP  RH WIND       PRES   REMARKS
ST CLOUD       CLEAR     68  43  40 SW8       29.86S
SAUK CENTRE      N/A     63  44  49 SW6       29.88S
PAYNESVILLE    CLEAR     68  41  37 SW9       29.90S
AITKIN         CLEAR     73  36  25 SW7       29.81S
PINE RIVER     CLEAR     70  45  40 SW5       29.85S
BRAINERD       CLEAR     66  44  45 S8        29.84R
STAPLES        CLEAR     70  39  32 SW10      29.84S
LONG PRAIRIE   FAIR      63  43  48 S6        29.88S
LITTLE FALLS   CLEAR     68  41  37 SW5       29.86S
LITCHFIELD     CLEAR     70  43  37 SW6       29.90S
BUFFALO        CLEAR     66  43  43 SW3       29.89S
MAPLE LAKE     CLEAR     69  46  43 SW5       29.89S
HUTCHINSON     CLEAR     69  44  41 SW8       29.92S
$$
MNZ037-044-045-052-053-060500-
   East Central Minnesota

CITY           SKY/WX    TMP DP  RH WIND       PRES   REMARKS
PRINCETON      CLEAR     66  43  42 SW5       29.86S
MORA           CLEAR     64  41  42 SW3       29.86S
CAMBRIDGE      CLEAR     68  46  45 S5        29.84S
RUSH CITY      PTCLDY    63  40  43 S5        29.85S
MOOSE LAKE     MOCLDY    59  39  47 SW5       29.80F
HINCKLEY       CLOUDY    57  43  58 CALM      29.84S
CLOQUET        CLEAR     66  37  34 SW7       29.80F
MCGREGOR       CLEAR     64  43  45 SW5       29.82S
$$
MNZ071>073-080-081-089-090-097-098-060500-
   Southwest Minnesota

CITY           SKY/WX    TMP DP  RH WIND       PRES   REMARKS
MONTEVIDEO     CLEAR     63  45  51 SW7       29.92R
GRANITE FALLS  CLEAR     61  44  53 S7        29.92S
CANBY          CLEAR     68  48  48 SW6       29.90S
MARSHALL       CLEAR     63  44  50 S10       29.91S
REDWOOD FALLS  CLEAR     62  41  46 S8        29.91S
OLIVIA         CLEAR     59  37  44 S5        29.91S
PIPESTONE      CLEAR     57  45  62 SW8       29.95S
WINDOM         PTCLDY    63  43  48 CALM      29.94F
WORTHINGTON    CLEAR     64  43  46 SW13      29.96S
JACKSON        PTCLDY    61  41  48 SW8       29.97S
TRACY          CLEAR     66  43  42 SW14      29.93R
SLAYTON        CLEAR     63  41  44 SW16      29.95F
$$
MNZ065>067-074>077-082>085-091>093-060500-
   South Central Minnesota

CITY           SKY/WX    TMP DP  RH WIND       PRES   REMARKS
MANKATO        CLEAR     66  39  37 SW7       29.93R
ST JAMES       PTCLDY    57  39  51 S5        29.94S
FAIRMONT       CLEAR     63  39  42 SW8       29.95R
GLENCOE        CLEAR     69  46  43 SW6       29.90S
FARIBAULT      CLEAR     63  43  48 S3        29.92S
OWATONNA       CLEAR     61  37  41 SW10      29.93S
WASECA         CLEAR     57  41  54 SW7       29.94S
ALBERT LEA     CLEAR     61  43  51 SW6       29.95S
$$
MNZ078>079-086>088-094>096-060500-
   Southeast Minnesota

CITY           SKY/WX    TMP DP  RH WIND       PRES   REMARKS
ROCHESTER      CLEAR     56  40  55 S9        29.95F
RED WING       CLEAR     54  43  66 CALM      29.89S
STANTON        CLEAR     60  39  46 SW5       29.90R
DODGE CENTER   CLEAR     57  39  51 SW9       29.94S
WINONA         CLEAR     55  48  76 CALM      29.93S
AUSTIN         CLEAR     57  39  51 S5        29.95S
PRESTON        CLEAR     58  37  43 SW12      29.95F
$$
ABBREVIATIONS USED IN REMARKS
   TC - TEMPERATURES IN CELSIUS
  WCI - WIND CHILL INDEX
   HX - HEAT INDEX
  VSB - VISIBILITY
$$



USA.gov is the U.S. government's official web portal to all federal, state and local government web resources and services.